| time (UTC) | temp F | wind direction | speed MPH | gust MPH | rain 1hr in | rain 24hr in | rain mn in | humidity % | barometer mb |
| 20260905201102 | 79 | 0.0 | 0.0 | 0.00 | 0.00 | 0.00 | 37 | 1027.2 | |
| 20260905192103 | 81 | 0.0 | 0.0 | 0.00 | 0.00 | 0.00 | 35 | 1026.3 | |
| 20260905185103 | 82 | 0.0 | 0.0 | 0.00 | 0.00 | 0.00 | 34 | 1026.0 | |
| 20260905183103 | 83 | 0.0 | 0.0 | 0.00 | 0.00 | 0.00 | 34 | 1025.7 | |
| 20260905182602 | 83 | 0.0 | 0.0 | 0.00 | 0.00 | 0.00 | 34 | 1025.6 | |
| 20260905182103 | 83 | 0.0 | 0.0 | 0.00 | 0.00 | 0.00 | 34 | 1025.5 | |
| 20260905181102 | 84 | 0.0 | 0.0 | 0.00 | 0.00 | 0.00 | 33 | 1025.3 | |
| 20260905180602 | 84 | 0.0 | 0.0 | 0.00 | 0.00 | 0.00 | 34 | 1025.2 | |
| 20260905171603 | 86 | 0.0 | 0.0 | 0.00 | 0.00 | 0.00 | 31 | 1024.8 | |
| 20260905165103 | 88 | 0.0 | 0.0 | 0.00 | 0.00 | 0.00 | 27 | 1024.7 | |
| 20260905163603 | 88 | 0.0 | 0.0 | 0.00 | 0.00 | 0.00 | 26 | 1024.6 | |
| 20260905161101 | 89 | 0.0 | 0.0 | 0.00 | 0.00 | 0.00 | 24 | 1024.6 | |
| 20260905155603 | 90 | 0.0 | 0.0 | 0.00 | 0.00 | 0.00 | 24 | 1024.4 | |
| 20260905154102 | 92 | 0.0 | 0.0 | 0.00 | 0.00 | 0.00 | 22 | 1024.3 | |
| 20260905152602 | 92 | 0.0 | 0.0 | 0.00 | 0.00 | 0.00 | 22 | 1024.3 | |
| 20260905145102 | 91 | 0.0 | 0.0 | 0.00 | 0.00 | 0.00 | 23 | 1024.3 | |
| 20260905142103 | 91 | 0.0 | 0.0 | 0.00 | 0.00 | 0.00 | 23 | 1024.5 | |
| 20260905141603 | 91 | 0.0 | 0.0 | 0.00 | 0.00 | 0.00 | 23 | 1024.6 | |
| 20260905140602 | 91 | 0.0 | 0.0 | 0.00 | 0.00 | 0.00 | 23 | 1024.6 | |
| 20260905124602 | 88 | 0.0 | 0.0 | 0.00 | 0.00 | 0.00 | 25 | 1025.3 | |
| 20260905123103 | 87 | 0.0 | 0.0 | 0.00 | 0.00 | 0.00 | 25 | 1025.3 | |
| 20260905121601 | 87 | 0.0 | 0.0 | 0.00 | 0.00 | 0.00 | 25 | 1025.5 | |
| 20260905120602 | 86 | 0.0 | 0.0 | 0.00 | 0.00 | 0.00 | 25 | 1025.5 | |
| 20260905113602 | 86 | 0.0 | 0.0 | 0.00 | 0.00 | 0.00 | 26 | 1025.9 | |
| 20260905112602 | 85 | 0.0 | 0.0 | 0.00 | 0.00 | 0.00 | 28 | 1025.9 | |
| 20260905112102 | 84 | 0.0 | 0.0 | 0.00 | 0.00 | 0.00 | 28 | 1026.0 | |
| 20260905111602 | 84 | 0.0 | 0.0 | 0.00 | 0.00 | 0.00 | 29 | 1026.1 | |
| 20260905095102 | 78 | 0.0 | 0.0 | 0.00 | 0.00 | 0.00 | 34 | 1027.2 | |
| 20260905094103 | 77 | 0.0 | 0.0 | 0.00 | 0.00 | 0.00 | 34 | 1027.4 | |
| 20260905084102 | 74 | 0.0 | 0.0 | 0.00 | 0.00 | 0.00 | 38 | 1027.6 | |
| 20260905080602 | 72 | 0.0 | 0.0 | 0.00 | 0.00 | 0.00 | 41 | 1027.6 | |
| 20260905075101 | 71 | 0.0 | 0.0 | 0.00 | 0.00 | 0.00 | 42 | 1027.7 | |
| 20260905065102 | 70 | 0.0 | 0.0 | 0.00 | 0.00 | 0.00 | 42 | 1027.9 | |
| 20260905064102 | 70 | 0.0 | 0.0 | 0.00 | 0.00 | 0.00 | 42 | 1027.9 | |
| 20260905063602 | 70 | 0.0 | 0.0 | 0.00 | 0.00 | 0.00 | 42 | 1027.9 | |
| 20260905055602 | 69 | 0.0 | 0.0 | 0.00 | 0.00 | 0.00 | 40 | 1027.4 | |
| 20260905051602 | 70 | 0.0 | 0.0 | 0.00 | 0.00 | 0.00 | 38 | 1026.9 | |
| 20260905045602 | 70 | 0.0 | 0.0 | 0.00 | 0.00 | 0.00 | 39 | 1026.8 | |
| 20260905043602 | 70 | 0.0 | 0.0 | 0.00 | 0.00 | 0.00 | 38 | 1027.0 | |
| 20260905034602 | 70 | 0.0 | 0.0 | 0.00 | 0.00 | 0.00 | 38 | 1026.7 | |
| 20260905034102 | 71 | 0.0 | 0.0 | 0.00 | 0.00 | 0.00 | 37 | 1026.7 | |
| 20260905031602 | 71 | 0.0 | 0.0 | 0.00 | 0.00 | 0.00 | 37 | 1026.9 | |
| 20260905030602 | 70 | 0.0 | 0.0 | 0.00 | 0.00 | 0.00 | 38 | 1026.8 | |
| 20260905025601 | 71 | 0.0 | 0.0 | 0.00 | 0.00 | 0.00 | 38 | 1026.7 | |
| 20260905023102 | 71 | 0.0 | 0.0 | 0.00 | 0.00 | 0.00 | 37 | 1026.8 | |
| 20260905021602 | 71 | 0.0 | 0.0 | 0.00 | 0.00 | 0.00 | 37 | 1026.7 | |
| 20260905020103 | 71 | 0.0 | 0.0 | 0.00 | 0.00 | 0.00 | 38 | 1026.8 | |
| 20260905015602 | 71 | 0.0 | 0.0 | 0.00 | 0.00 | 0.00 | 37 | 1026.8 | |
| 20260905012102 | 72 | 0.0 | 0.0 | 0.00 | 0.00 | 0.00 | 37 | 1026.8 | |
| 20260905011102 | 72 | 0.0 | 0.0 | 0.00 | 0.00 | 0.00 | 37 | 1026.9 | |
| 20260905005602 | 73 | 0.0 | 0.0 | 0.00 | 0.00 | 0.00 | 36 | 1026.9 | |
| 20260905004602 | 73 | 0.0 | 0.0 | 0.00 | 0.00 | 0.00 | 35 | 1027.0 | |
| 20260905003602 | 73 | 0.0 | 0.0 | 0.00 | 0.00 | 0.00 | 35 | 1027.0 | |
| 20260904235103 | 74 | 0.0 | 0.0 | 0.00 | 0.00 | 0.00 | 34 | 1026.9 | |
| 20260904232602 | 74 | 0.0 | 0.0 | 0.00 | 0.00 | 0.00 | 34 | 1026.9 | |
| 20260904225102 | 74 | 0.0 | 0.0 | 0.00 | 0.00 | 0.00 | 34 | 1026.8 | |
| 20260904224602 | 74 | 0.0 | 0.0 | 0.00 | 0.00 | 0.00 | 34 | 1026.8 | |
| 20260904221103 | 76 | 0.0 | 0.0 | 0.00 | 0.00 | 0.00 | 32 | 1026.5 | |
| 20260904215102 | 76 | 0.0 | 0.0 | 0.00 | 0.00 | 0.00 | 31 | 1026.5 | |
| 20260904213602 | 76 | 0.0 | 0.0 | 0.00 | 0.00 | 0.00 | 31 | 1026.5 | |
| 20260904212602 | 77 | 0.0 | 0.0 | 0.00 | 0.00 | 0.00 | 31 | 1026.5 | |
| 20260904211102 | 78 | 0.0 | 0.0 | 0.00 | 0.00 | 0.00 | 30 | 1026.5 | |
| 20260904203102 | 78 | 0.0 | 0.0 | 0.00 | 0.00 | 0.00 | 30 | 1026.4 |